Regional Weather Roundup
Issued by NWS Upton, NY

Current Version | Previous Version | Text Only | Print | Product List | Glossary On
Versions: 1 2 3 4 5 6 7 8 9 10 11 12 13 14 15 16 17 18 19 20 21 22 23 24 25 26
000
ASUS41 KOKX 230505
RWROKX
REGIONAL WEATHER ROUNDUP
NATIONAL WEATHER SERVICE NEW YORK NY
100 AM EDT WED APR 23 2014

NOTE: "FAIR" INDICATES FEW OR NO CLOUDS BELOW 12,000 FEET WITH NO
SIGNIFICANT WEATHER AND/OR OBSTRUCTIONS TO VISIBILITY.

NYZ071-072-176-178-NJZ106-104-230600-
NEW YORK CITY METRO AREA


CITY           SKY/WX    TMP DP  RH WIND       PRES   REMARKS
CENTRAL PARK   CLEAR     61  46  57 VRB7      29.53S
LAGUARDIA APRT PTCLDY    62  44  51 W12       29.50S
KENNEDY INTL   PTCLDY    53  48  83 SW8       29.52S
NEWARK/LIBERTY PTCLDY    60  47  61 W10       29.52R
TETERBORO      CLEAR     58  48  69 CALM      29.50S
$$

NYZ177-179-078>081-230600-
LONG ISLAND NEW YORK

CITY           SKY/WX    TMP DP  RH WIND       PRES   REMARKS
FARMINGDALE    CLEAR     51  48  89 CALM      29.50F
ISLIP          CLEAR     50  47  89 CALM      29.49F FOG
SHIRLEY        PTCLDY    47  46  97 CALM      29.51F FOG
WESTHAMPTON    FOG       42  41  96 CALM      29.52F VSB 1/2
MONTAUK POINT    N/A     48  45  89 CALM      29.52S
$$

NYZ052-065-067-230600-
HUDSON VALLEY

CITY           SKY/WX    TMP DP  RH WIND       PRES   REMARKS
WHITE PLAINS   CLEAR     56  50  80 W3        29.49F
NEWBURGH       LGT RAIN  55  50  82 W9        29.52S
MONTGOMERY     LGT RAIN  55  50  83 NW16      29.51R
POUGHKEEPSIE   CLOUDY    53  50  89 NE3       29.49S
ALBANY         CLOUDY    50  43  77 W17G23    29.55S
$$

NJZ001-105-106-008-010-013-015-019>022-104-230600-
NEW JERSEY

CITY           SKY/WX    TMP DP  RH WIND       PRES   REMARKS
NEWARK/LIBERTY PTCLDY    60  47  61 W10       29.52R
TETERBORO      CLEAR     58  48  69 CALM      29.50S
CALDWELL       CLEAR     56  48  74 CALM      29.52S
MORRISTOWN     CLEAR     59  48  67 W6        29.52S
SOMERVILLE     CLEAR     57  46  66 W6        29.52S
LINDEN         FAIR      61  47  60 W10       29.54S
SUSSEX         CLOUDY    58  50  75 VRB7      29.54R
ANDOVER          N/A     51  48  89 CALM      29.54R
TRENTON        PTCLDY    56  47  71 W10G18    29.56S
MILLVILLE      CLOUDY    60  46  59 NW13G21   29.58S
ATLANTIC CITY  PTCLDY    57  45  64 W8        29.57F
WRIGHTSTOWN    PTCLDY    56  48  73 W7        29.55S
TOMS RIVER     CLEAR     54  46  76 W5        29.56S
BELMAR         CLEAR     57  43  58 W8        29.54S
$$

PAZ047>061-062-071-230600-
EASTERN PENNSYLVANIA

CITY           SKY/WX    TMP DP  RH WIND       PRES   REMARKS
PHILADELPHIA   CLOUDY    60  40  47 W14G24    29.60S
ALLENTOWN      CLEAR     54  41  61 W10G17    29.57S
SCRANTON       CLOUDY    49  41  74 NW18      29.60R
$$

CTZ002-004>006-009-010-012-RIZ004-006-007-MAZ004-011-015-230600-
SOUTHERN NEW ENGLAND
 IN CT

CITY           SKY/WX    TMP DP  RH WIND       PRES   REMARKS
BRADLEY INTL   CLOUDY    54  50  86 S6        29.49R
HARTFORD       CLOUDY    52  48  86 CALM      29.50R
DANBURY        PTCLDY    48  47  96 SW3       29.51S FOG
WTRBRY/OXFORD  PTCLDY    50  45  81 CALM      29.53S
BRIDGEPORT     CLEAR     52  49  89 CALM      29.50S
MERIDEN        MOCLDY    49  47  93 CALM      29.50S
NEW HAVEN      FOG       46  45  96 CALM      29.50S VSB 1/4
CHESTER        FAIR      48  48 100 CALM      29.51S
GROTON         CLEAR     47  46  97 S3        29.50S FOG
WILLIMANTIC    CLOUDY    50  49  96 CALM      29.51R FOG

 IN RI

CITY           SKY/WX    TMP DP  RH WIND       PRES   REMARKS
PROVIDENCE     MOCLDY    50  49  96 S5        29.49F FOG
BLOCK ISLAND   PTCLDY    46  43  87 SW13      29.50S
WESTERLY       FOG       47  46  97 SW3       29.51S VSB 1/2

 IN MA

CITY           SKY/WX    TMP DP  RH WIND       PRES   REMARKS
BOSTON         CLOUDY    54  51  90 SW7       29.47F
WORCESTER      MOCLDY    51  49  92 W10       29.47F
WESTFIELD      CLOUDY    56  49  77 W5        29.49S
PROVINCETOWN   CLOUDY    48  48 100 MISG      29.49F
NANTUCKET      LGT RAIN  49  46  90 S9        29.50F
$$

ANZ330-335-338-340-345-350-353-355-230600-
COASTAL MARINE OBSERVATIONS


STATION/POSITION TIME  SKY/WX   TEMP    WIND        PRES    VSBY  WAVE
                                AIR SEA DIR/SP/G                  HT/PER
                 (UTC)          (F)     (DEG/KT/KT) (MB)    (MI)  (FT/S)
NY HARB ENTRANCE 0500            52 47  VRB  8/  8   999.5
4S FIRE IS       0400               47                N/A           4/ 9
23SW MTP         0500            46 43  240/ 10/ 12  998.9          3/ 9
HUDSON CANYON    0400            49 45  230/ 12/ 14 1000.2          4/ 8
EXECUTION ROCKS  0500            54 46  190/  2/  4   N/A
WESTERN LI SOUND 0500            53     270/  6/  6   N/A           0
CENTRAL LI SOUND 0400            46 46   CALM  /  2   N/A           0
EASTERN LI SOUND NOT AVBL
ROBBINS REEF     0500            61     260/ 15/ 19   N/A
$$


>>>>>>>>>>>>>>>>>>>>>>>>>>>> KEY <<<<<<<<<<<<<<<<<<<<<<<<<<<
>                                                          <
>     SKY/WX - SKY CONDITION/PRESENT WEATHER               <
>     TMP    - TEMPERATURE IN FAHRENHEIT                   <
>     DP     - DEWPOINT IN FAHRENHEIT                      <
>     RH     - RELATIVE HUMIDITY IN PERCENT                <
>     WIND   - DIRECTION AND SPEED IN MPH                  <
>     PRES   - MEAN SEA LEVEL PRESSURE IN INCHES OF HG     <
>     WCI    - WIND CHILL INDEX                            <
>     VSB    - VISIBILITY IN MILES                         <
>     HX     - HEAT INDEX                                  <
>     TC     - TEMPERATURE IN CELSIUS                      <
>     VRB    - VARIABLE WIND DIRECTION                     <
>                                                          <
>>>>>>>>>>>>>>>>>>>>>>>>>>>> KEY <<<<<<<<<<<<<<<<<<<<<<<<<<<





USA.gov is the U.S. government's official web portal to all federal, state and local government web resources and services.